This demonstration page uses our WeatherBlox Daily Observations layout. Learn more.

Left ArrowRight Arrow

41.86663, -103.66717

Hourly Observations for July 10, 2019

Temp ( °F °C ) Dew Point ( °F °C ) Humidity (%) Winds ( mph kmh ) Pressure ( in mb ) Visibility ( mi km ) Precip ( " mm )
12:53 am 00:53 Clear 55 13 N/A N/A W 5 7 30.15 1021 10 16 0.00 0.00
1:53 am 01:53 Clear 55 13 N/A N/A WNW 3 6 30.14 1021 10 16 0.00 0.00
2:53 am 02:53 Clear 54 12 N/A N/A WNW 5 7 30.15 1021 10 16 0.00 0.00
3:53 am 03:53 Clear 54 12 N/A N/A W 7 11 30.16 1021 10 16 0.00 0.00
4:53 am 04:53 Clear 52 11 N/A N/A WNW 7 11 30.18 1022 10 16 0.00 0.00
5:53 am 05:53 Sunny 52 11 N/A N/A NW 5 7 30.21 1023 10 16 0.00 0.00
6:53 am 06:53 Sunny 55 13 N/A N/A NW 7 11 30.22 1024 10 16 0.00 0.00
7:53 am 07:53 Sunny 59 15 N/A N/A NW 5 7 30.24 1024 10 16 0.00 0.00
8:53 am 08:53 Sunny 64 18 N/A N/A NW 8 13 30.24 1024 10 16 0.00 0.00
9:53 am 09:53 Sunny 70 21 N/A N/A VRB 3 6 30.24 1024 10 16 0.00 0.00
10:53 am 10:53 Sunny 73 23 N/A N/A Calm 30.24 1024 10 16 0.00 0.00
11:53 am 11:53 Sunny 73 23 N/A N/A VRB 6 9 30.23 1024 10 16 0.00 0.00
12:53 pm 12:53 Sunny 75 24 N/A N/A undefined N/A 30.22 1023 10 16 0.00 0.00
1:53 pm 13:53 Sunny 77 25 N/A N/A SSW 6 9 30.19 1023 10 16 0.00 0.00
2:53 pm 14:53 Sunny 81 27 N/A N/A VRB 5 7 30.18 1022 10 16 0.00 0.00
3:53 pm 15:53 Sunny 81 27 N/A N/A ESE 5 7 30.16 1021 10 16 0.00 0.00
4:53 pm 16:53 Sunny 82 28 N/A N/A ESE 5 7 30.14 1021 10 16 0.00 0.00
5:53 pm 17:53 Sunny 81 27 N/A N/A ESE 8 13 30.14 1021 10 16 0.00 0.00
6:53 pm 18:53 Sunny 79 26 N/A N/A E 10 17 30.12 1020 10 16 0.00 0.00
7:53 pm 19:53 Sunny 75 24 N/A N/A E 9 15 30.12 1020 10 16 0.00 0.00
8:53 pm 20:53 Clear 70 21 N/A N/A E 7 11 30.14 1021 10 16 0.00 0.00
9:53 pm 21:53 Clear 66 19 N/A N/A ESE 6 9 30.14 1021 10 16 0.00 0.00
10:53 pm 22:53 Clear 64 18 N/A N/A ESE 9 15 30.14 1021 10 16 0.00 0.00
11:53 pm 23:53 Clear 63 17 N/A N/A ESE 8 13 30.14 1021 10 16 0.00 0.00

Powered by AerisWeather